Weather History for Lakeville, MN

Change the Weather History Date:

Monday, May 13, 2013

  Actual Average Record
Temperature  
Mean Temperature 50 °F -  
Max Temperature 71 °F 69 °F 91 °F (2007)
Min Temperature 30 °F 44 °F 26 °F (1953)
Degree Days  
Heating Degree Days 14    
Moisture  
Dew Point 34 °F    
Average Humidity 52    
Maximum Humidity 86    
Minimum Humidity 27    
Precipitation  
Precipitation 0.00 in - - ()
Sea Level Pressure  
Sea Level Pressure 29.94 in    
Wind  
Wind Speed 5 mph (South)    
Max Wind Speed 18 mph    
Max Gust Speed 25 mph    
Visibility 10 miles    
Events Rain    
Averages and records for this station are not official NWS values.
T = Trace of Precipitation, MM = Missing Value Source: NWS Daily Summary

Daily Weather History Graph

Daily Weather History Graph

Search for Another Location

Airport:

Trip Planner

Search our weather history database for the weather conditions in past years. The results will help you decide how hot, cold, wet, or windy it might be!

Date:

Astronomy

May. 13, 2013 Rise Set
Actual Time 5:46 AM CDT 8:32 PM CDT
Civil Twilight 5:13 AM CDT 9:06 PM CDT
Nautical Twilight 4:30 AM CDT 9:48 PM CDT
Astronomical Twilight 3:41 AM CDT 10:38 PM CDT
Moon 8:32 AM CDT (5/13) 11:41 PM CDT (5/13)
Length of Visible Light 15h 52m
Length of Day
14h 45m
Waxing Crescent, 12% of the Moon is Illuminated
May 13
Waxing Crescent
May 17
First Quarter
May 24
Full
May 31
Last Quarter
Jun 8
New

Hourly Weather History & Observations

Time (CDT) Temp. Windchill Dew Point Humidity Pressure Visibility Wind Dir Wind Speed Gust Speed Precip Events Conditions
12:13 AM 37.4 °F - 26.6 °F 65% 30.11 in 10.0 mi Calm Calm - N/A   Clear
12:34 AM 39.2 °F - 24.8 °F 56% 30.11 in 10.0 mi Calm Calm - N/A   Clear
12:53 AM 37.4 °F - 26.6 °F 65% 30.11 in 10.0 mi Calm Calm - N/A   Clear
1:13 AM 33.8 °F - 26.6 °F 75% 30.11 in 10.0 mi Calm Calm - N/A   Clear
1:34 AM 35.6 °F - 28.4 °F 75% 30.11 in 10.0 mi Calm Calm - N/A   Clear
1:53 AM 33.8 °F - 28.4 °F 81% 30.11 in 10.0 mi Calm Calm - N/A   Clear
2:13 AM 37.4 °F - 24.8 °F 60% 30.11 in 10.0 mi Calm Calm - N/A   Clear
2:34 AM 35.6 °F - 28.4 °F 75% 30.10 in 10.0 mi Calm Calm - N/A   Clear
2:53 AM 33.8 °F - 26.6 °F 75% 30.10 in 10.0 mi Calm Calm - N/A   Clear
3:13 AM 33.8 °F - 28.4 °F 81% 30.09 in 10.0 mi Calm Calm - N/A   Clear
3:34 AM 33.8 °F - 26.6 °F 75% 30.09 in 10.0 mi Calm Calm - N/A   Clear
3:53 AM 35.6 °F - 26.6 °F 70% 30.09 in 10.0 mi Calm Calm - N/A   Clear
4:14 AM 33.8 °F - 26.6 °F 75% 30.09 in 10.0 mi Calm Calm - N/A   Clear
4:34 AM 35.6 °F - 26.6 °F 70% 30.08 in 10.0 mi Calm Calm - N/A   Clear
4:53 AM 30.2 °F - 26.6 °F 86% 30.08 in 10.0 mi Calm Calm - N/A   Clear
5:14 AM 33.8 °F - 26.6 °F 75% 30.08 in 10.0 mi Calm Calm - N/A   Clear
5:34 AM 33.8 °F - 26.6 °F 75% 30.08 in 10.0 mi Calm Calm - N/A   Clear
5:53 AM 33.8 °F - 28.4 °F 81% 30.08 in 10.0 mi Calm Calm - N/A   Clear
6:14 AM 35.6 °F - 26.6 °F 70% 30.09 in 10.0 mi Calm Calm - N/A   Clear
6:33 AM 35.6 °F - 26.6 °F 70% 30.09 in 10.0 mi Calm Calm - N/A   Clear
6:53 AM 35.6 °F - 28.4 °F 75% 30.08 in 10.0 mi Calm Calm - N/A   Clear
7:13 AM 35.6 °F - 30.2 °F 81% 30.09 in 10.0 mi Calm Calm - N/A   Clear
7:33 AM 37.4 °F - 30.2 °F 75% 30.10 in 10.0 mi Calm Calm - N/A   Clear
7:54 AM 42.8 °F - 30.2 °F 61% 30.09 in 10.0 mi Calm Calm - N/A   Clear
8:13 AM 44.6 °F 43.1 °F 28.4 °F 53% 30.09 in 10.0 mi SE 3.5 mph - N/A   Clear
8:34 AM 46.4 °F 45.2 °F 28.4 °F 50% 30.08 in 10.0 mi SSE 3.5 mph - N/A   Clear
8:54 AM 48.2 °F - 28.4 °F 46% 30.09 in 10.0 mi SE 4.6 mph - N/A   Scattered Clouds
9:13 AM 51.8 °F - 28.4 °F 41% 30.08 in 10.0 mi South 5.8 mph - N/A   Clear
9:34 AM 55.4 °F - 28.4 °F 36% 30.06 in 10.0 mi South 6.9 mph - N/A   Clear
9:54 AM 55.4 °F - 28.4 °F 36% 30.05 in 10.0 mi South 9.2 mph - N/A   Clear
10:13 AM 57.2 °F - 26.6 °F 31% 30.04 in 10.0 mi South 10.4 mph - N/A   Clear
10:34 AM 59.0 °F - 26.6 °F 29% 30.03 in 10.0 mi South 8.1 mph - N/A   Clear
10:53 AM 60.8 °F - 26.6 °F 27% 30.03 in 10.0 mi South 11.5 mph - N/A   Clear
11:13 AM 60.8 °F - 26.6 °F 27% 30.01 in 10.0 mi South 11.5 mph - N/A   Clear
11:34 AM 60.8 °F - 28.4 °F 29% 30.01 in 10.0 mi South 11.5 mph - N/A   Clear
11:53 AM 59.0 °F - 28.4 °F 31% 30.01 in 7.0 mi South 8.1 mph - N/A   Clear
12:14 PM 57.2 °F - 30.2 °F 36% 30.00 in 10.0 mi South 11.5 mph 16.1 mph N/A Rain Light Rain
12:34 PM 59.0 °F - 30.2 °F 34% 29.98 in 10.0 mi South 11.5 mph - N/A   Mostly Cloudy
12:53 PM 59.0 °F - 30.2 °F 34% 29.97 in 10.0 mi SSE 12.7 mph 17.3 mph N/A   Mostly Cloudy
1:14 PM 57.2 °F - 33.8 °F 41% 29.96 in 10.0 mi SSE 11.5 mph - N/A Rain Light Rain
1:34 PM 60.8 °F - 33.8 °F 36% 29.94 in 10.0 mi SSE 11.5 mph 17.3 mph N/A   Mostly Cloudy
1:53 PM 60.8 °F - 33.8 °F 36% 29.93 in 10.0 mi SSE 15.0 mph 23.0 mph N/A   Mostly Cloudy
2:14 PM 62.6 °F - 35.6 °F 37% 29.90 in 10.0 mi SSE 18.4 mph - N/A   Scattered Clouds
2:33 PM 64.4 °F - 35.6 °F 34% 29.91 in 10.0 mi SSE 15.0 mph 23.0 mph N/A   Clear
3:33 PM 66.2 °F - 39.2 °F 37% 29.88 in 10.0 mi South 17.3 mph 24.2 mph N/A   Clear
3:53 PM 66.2 °F - 37.4 °F 35% 29.86 in 10.0 mi SSE 16.1 mph 23.0 mph N/A   Clear
4:14 PM 66.2 °F - 37.4 °F 35% 29.85 in 10.0 mi South 17.3 mph 21.9 mph N/A   Clear
4:33 PM 68.0 °F - 39.2 °F 35% 29.84 in 10.0 mi South 18.4 mph 25.3 mph N/A   Clear
4:54 PM 68.0 °F - 39.2 °F 35% 29.82 in 10.0 mi South 16.1 mph 23.0 mph N/A   Clear
5:14 PM 69.8 °F - 39.2 °F 33% 29.82 in 10.0 mi South 16.1 mph 23.0 mph N/A   Clear
5:33 PM 69.8 °F - 41.0 °F 35% 29.81 in 10.0 mi South 16.1 mph 23.0 mph N/A   Clear
5:54 PM 69.8 °F - 42.8 °F 38% 29.79 in 10.0 mi South 12.7 mph 23.0 mph N/A   Clear
6:33 PM 71.6 °F - 42.8 °F 35% 29.75 in 10.0 mi South 17.3 mph 21.9 mph N/A   Clear
7:13 PM 69.8 °F - 44.6 °F 40% 29.74 in 10.0 mi SSE 11.5 mph 17.3 mph N/A   Clear
7:33 PM 69.8 °F - 44.6 °F 40% 29.72 in 10.0 mi SSE 11.5 mph - N/A   Clear
7:54 PM 68.0 °F - 46.4 °F 46% 29.72 in 10.0 mi SSE 9.2 mph - N/A   Clear
8:13 PM 68.0 °F - 46.4 °F 46% 29.71 in 10.0 mi SSE 8.1 mph - N/A   Clear
8:33 PM 68.0 °F - 46.4 °F 46% 29.70 in 10.0 mi SSE 10.4 mph 16.1 mph N/A   Clear
8:54 PM 66.2 °F - 46.4 °F 49% 29.69 in 10.0 mi South 10.4 mph 16.1 mph N/A   Clear
9:13 PM 66.2 °F - 46.4 °F 49% 29.69 in 10.0 mi South 8.1 mph - N/A   Clear
9:33 PM 66.2 °F - 46.4 °F 49% 29.68 in 10.0 mi South 10.4 mph 16.1 mph N/A   Clear
9:54 PM 66.2 °F - 46.4 °F 49% 29.68 in 10.0 mi South 13.8 mph 20.7 mph N/A   Clear
10:13 PM 66.2 °F - 46.4 °F 49% 29.67 in 10.0 mi South 15.0 mph 23.0 mph N/A   Clear
10:33 PM 64.4 °F - 46.4 °F 52% 29.67 in 10.0 mi South 13.8 mph 20.7 mph N/A   Clear
10:54 PM 64.4 °F - 46.4 °F 52% 29.66 in 10.0 mi South 16.1 mph 21.9 mph N/A   Clear
11:13 PM 64.4 °F - 46.4 °F 52% 29.66 in 10.0 mi SSW 8.1 mph 17.3 mph N/A   Clear
11:33 PM 64.4 °F - 46.4 °F 52% 29.66 in 10.0 mi SSW 6.9 mph 16.1 mph N/A   Clear
11:54 PM 64.4 °F - 46.4 °F 52% 29.66 in 10.0 mi WSW 8.1 mph - N/A   Clear